Time,TemperatureF,DewpointF,PressureIn,WindDirection,WindDirectionDegrees,WindSpeedMPH,WindSpeedGustMPH,Humidity,HourlyPrecipIn,Conditions,Clouds,dailyrainin,SoftwareType,DateUTC
2013-02-08 00:01:00,25.4,6.0,30.49,East,88,0.0,0.0,43,0.00,,,0.00,Wunderground v.1.15,2013-02-08 05:01:00,
2013-02-08 00:10:00,25.7,6.3,30.49,East,88,0.0,0.0,43,0.00,,,0.00,Wunderground v.1.15,2013-02-08 05:10:00,
2013-02-08 00:20:00,25.8,6.9,30.48,East,88,0.0,0.0,44,0.00,,,0.00,Wunderground v.1.15,2013-02-08 05:20:00,
2013-02-08 00:30:00,25.4,7.0,30.48,East,88,0.0,0.0,45,0.00,,,0.00,Wunderground v.1.15,2013-02-08 05:30:00,
2013-02-08 00:40:00,25.1,7.2,30.47,East,88,0.0,0.0,46,0.00,,,0.00,Wunderground v.1.15,2013-02-08 05:40:00,
2013-02-08 00:50:00,24.7,6.8,30.47,East,88,0.0,0.0,46,0.00,,,0.00,Wunderground v.1.15,2013-02-08 05:50:00,
2013-02-08 01:00:00,24.5,7.1,30.47,East,88,0.0,0.0,47,0.00,,,0.00,Wunderground v.1.15,2013-02-08 06:00:00,
2013-02-08 01:10:00,24.1,7.7,30.46,East,88,0.0,0.0,49,0.00,,,0.00,Wunderground v.1.15,2013-02-08 06:10:00,
2013-02-08 01:20:00,23.6,7.2,30.46,East,88,0.0,0.0,49,0.00,,,0.00,Wunderground v.1.15,2013-02-08 06:20:00,
2013-02-08 01:30:00,23.4,7.9,30.45,East,88,0.0,0.0,51,0.00,,,0.00,Wunderground v.1.15,2013-02-08 06:30:00,
2013-02-08 01:40:00,23.1,8.9,30.46,East,88,0.0,0.0,54,0.00,,,0.00,Wunderground v.1.15,2013-02-08 06:40:00,
2013-02-08 01:50:00,23.0,8.8,30.46,East,88,0.0,0.0,54,0.00,,,0.00,Wunderground v.1.15,2013-02-08 06:50:00,
2013-02-08 02:00:00,23.0,8.8,30.45,East,88,0.0,0.0,54,0.00,,,0.00,Wunderground v.1.15,2013-02-08 07:00:00,
2013-02-08 02:10:00,23.2,9.4,30.44,East,88,0.0,0.0,55,0.00,,,0.00,Wunderground v.1.15,2013-02-08 07:10:00,
2013-02-08 02:20:00,23.6,10.6,30.43,East,88,0.0,0.0,57,0.00,,,0.00,Wunderground v.1.15,2013-02-08 07:20:00,
2013-02-08 02:30:00,23.9,10.9,30.43,East,88,0.0,0.0,57,0.00,,,0.00,Wunderground v.1.15,2013-02-08 07:30:00,
2013-02-08 02:40:00,23.8,11.2,30.42,East,88,0.0,0.0,58,0.00,,,0.00,Wunderground v.1.15,2013-02-08 07:40:00,
2013-02-08 02:50:00,23.8,11.9,30.41,East,88,0.0,0.0,60,0.00,,,0.00,Wunderground v.1.15,2013-02-08 07:50:00,
2013-02-08 03:00:00,23.9,12.8,30.41,East,88,0.0,0.0,62,0.00,,,0.00,Wunderground v.1.15,2013-02-08 08:00:00,
2013-02-08 03:10:00,24.3,14.9,30.40,East,88,0.0,0.0,67,0.00,,,0.00,Wunderground v.1.15,2013-02-08 08:10:00,
2013-02-08 03:20:00,24.7,16.3,30.40,East,86,0.0,0.0,70,0.00,,,0.00,Wunderground v.1.15,2013-02-08 08:20:00,
2013-02-08 03:30:00,25.0,17.2,30.39,East,86,0.0,0.0,72,0.00,,,0.00,Wunderground v.1.15,2013-02-08 08:30:00,
2013-02-08 03:40:00,25.2,18.4,30.38,ESE,110,0.0,0.0,75,0.00,,,0.00,Wunderground v.1.15,2013-02-08 08:40:00,
2013-02-08 03:50:00,25.3,19.4,30.38,West,263,0.0,0.0,78,0.00,,,0.00,Wunderground v.1.15,2013-02-08 08:50:00,
2013-02-08 04:00:00,25.6,20.0,30.38,ESE,115,0.0,0.0,79,0.00,,,0.00,Wunderground v.1.15,2013-02-08 09:00:00,
2013-02-08 04:10:00,25.8,20.5,30.38,ESE,107,1.0,1.0,80,0.00,,,0.00,Wunderground v.1.15,2013-02-08 09:10:00,
2013-02-08 04:20:00,26.0,21.3,30.38,NE,49,0.0,0.0,82,0.00,,,0.00,Wunderground v.1.15,2013-02-08 09:20:00,
2013-02-08 04:30:00,26.0,21.3,30.38,NNE,27,0.0,0.0,82,0.00,,,0.00,Wunderground v.1.15,2013-02-08 09:30:00,
2013-02-08 04:40:00,26.2,21.7,30.38,NNE,27,0.0,0.0,83,0.00,,,0.00,Wunderground v.1.15,2013-02-08 09:40:00,
2013-02-08 04:50:00,26.4,21.9,30.38,NNE,27,0.0,0.0,83,0.00,,,0.00,Wunderground v.1.15,2013-02-08 09:50:00,
2013-02-08 05:00:00,26.7,22.2,30.37,East,83,0.0,0.0,83,0.00,,,0.00,Wunderground v.1.15,2013-02-08 10:00:00,
2013-02-08 05:20:00,26.8,22.6,30.36,East,82,0.0,1.0,84,0.00,,,0.00,Wunderground v.1.15,2013-02-08 10:20:00,
2013-02-08 06:00:00,24.3,20.4,30.36,NW,324,1.0,1.0,85,0.00,,,0.00,Wunderground v.1.15,2013-02-08 11:00:00,
2013-02-08 06:10:00,24.0,19.9,30.36,NE,48,1.0,1.0,84,0.00,,,0.00,Wunderground v.1.15,2013-02-08 11:10:00,
2013-02-08 06:20:00,23.7,19.9,30.35,NNW,342,0.0,0.0,85,0.00,,,0.00,Wunderground v.1.15,2013-02-08 11:20:00,
2013-02-08 06:30:00,23.6,19.8,30.35,East,80,1.0,1.0,85,0.00,,,0.00,Wunderground v.1.15,2013-02-08 11:30:00,
2013-02-08 06:40:00,23.5,19.9,30.34,SSE,149,0.0,1.0,86,0.00,,,0.00,Wunderground v.1.15,2013-02-08 11:40:00,
2013-02-08 06:50:00,23.4,19.8,30.34,ENE,65,0.0,0.0,86,0.00,,,0.00,Wunderground v.1.15,2013-02-08 11:50:00,
2013-02-08 07:00:00,23.5,19.9,30.34,NE,46,0.0,0.0,86,0.00,,,0.00,Wunderground v.1.15,2013-02-08 12:00:00,
2013-02-08 07:10:00,23.6,20.3,30.34,ENE,74,0.0,0.0,87,0.00,,,0.00,Wunderground v.1.15,2013-02-08 12:10:00,
2013-02-08 07:20:00,23.7,20.4,30.34,ENE,69,0.0,0.0,87,0.00,,,0.00,Wunderground v.1.15,2013-02-08 12:20:00,
2013-02-08 07:30:00,23.7,20.4,30.34,ENE,69,0.0,0.0,87,0.00,,,0.00,Wunderground v.1.15,2013-02-08 12:30:00,
2013-02-08 07:40:00,23.7,20.4,30.34,NNE,33,0.0,0.0,87,0.00,,,0.00,Wunderground v.1.15,2013-02-08 12:40:00,
2013-02-08 07:50:00,23.8,20.5,30.33,NE,41,0.0,0.0,87,0.00,,,0.00,Wunderground v.1.15,2013-02-08 12:50:00,
2013-02-08 08:00:00,23.5,19.9,30.33,North,5,1.0,1.0,86,0.00,,,0.00,Wunderground v.1.15,2013-02-08 13:00:00,
2013-02-08 08:10:00,23.4,19.8,30.33,North,5,1.0,1.0,86,0.00,,,0.00,Wunderground v.1.15,2013-02-08 13:10:00,
2013-02-08 08:20:00,23.4,20.1,30.33,NNW,347,1.0,1.0,87,0.00,,,0.00,Wunderground v.1.15,2013-02-08 13:20:00,
2013-02-08 08:30:00,23.3,19.7,30.32,NNW,347,1.0,1.0,86,0.00,,,0.00,Wunderground v.1.15,2013-02-08 13:30:00,
2013-02-08 08:40:00,23.3,19.7,30.32,NNW,342,1.0,1.0,86,0.00,,,0.00,Wunderground v.1.15,2013-02-08 13:40:00,
2013-02-08 08:50:00,23.2,19.6,30.31,NNE,17,1.0,1.0,86,0.00,,,0.00,Wunderground v.1.15,2013-02-08 13:50:00,
2013-02-08 09:00:00,23.4,19.8,30.31,WNW,287,0.0,0.0,86,0.00,,,0.00,Wunderground v.1.15,2013-02-08 14:00:00,
2013-02-08 09:10:00,23.5,19.9,30.30,NNE,18,0.0,0.0,86,0.00,,,0.00,Wunderground v.1.15,2013-02-08 14:10:00,
2013-02-08 09:20:00,23.6,19.8,30.30,NE,47,1.0,1.0,85,0.00,,,0.00,Wunderground v.1.15,2013-02-08 14:20:00,
2013-02-08 09:30:00,23.7,19.9,30.29,NNW,348,1.0,3.0,85,0.00,,,0.00,Wunderground v.1.15,2013-02-08 14:30:00,
2013-02-08 09:40:00,23.7,19.9,30.29,NNW,348,1.0,1.0,85,0.00,,,0.00,Wunderground v.1.15,2013-02-08 14:40:00,
2013-02-08 09:50:00,23.6,19.8,30.29,NE,52,0.0,0.0,85,0.00,,,0.00,Wunderground v.1.15,2013-02-08 14:50:00,
2013-02-08 10:00:00,23.9,20.0,30.29,North,5,1.0,2.0,85,0.00,,,0.00,Wunderground v.1.15,2013-02-08 15:00:00,
2013-02-08 10:10:00,24.0,20.1,30.28,NNE,18,1.0,1.0,85,0.00,,,0.00,Wunderground v.1.15,2013-02-08 15:10:00,
2013-02-08 10:20:00,24.1,20.5,30.28,NNE,18,1.0,2.0,86,0.00,,,0.00,Wunderground v.1.15,2013-02-08 15:20:00,
2013-02-08 10:30:00,24.3,20.7,30.28,NE,50,2.0,2.0,86,0.00,,,0.00,Wunderground v.1.15,2013-02-08 15:30:00,
2013-02-08 10:40:00,24.5,21.2,30.27,ESE,104,1.0,1.0,87,0.00,,,0.00,Wunderground v.1.15,2013-02-08 15:40:00,
2013-02-08 10:50:00,24.5,21.2,30.27,North,355,1.0,1.0,87,0.00,,,0.00,Wunderground v.1.15,2013-02-08 15:50:00,
2013-02-08 11:00:00,24.2,20.9,30.25,NNE,18,1.0,1.0,87,0.00,,,0.00,Wunderground v.1.15,2013-02-08 16:00:00,
2013-02-08 11:10:00,23.9,20.6,30.25,NW,326,2.0,3.0,87,0.00,,,0.00,Wunderground v.1.15,2013-02-08 16:10:00,
2013-02-08 11:20:00,23.8,20.8,30.24,North,11,2.0,2.0,88,0.00,,,0.01,Wunderground v.1.15,2013-02-08 16:20:00,
2013-02-08 11:30:00,23.7,20.7,30.23,SSE,148,2.0,3.0,88,0.00,,,0.01,Wunderground v.1.15,2013-02-08 16:30:00,
2013-02-08 11:40:00,23.4,20.4,30.22,NNE,33,2.0,3.0,88,0.00,,,0.01,Wunderground v.1.15,2013-02-08 16:40:00,
2013-02-08 11:50:00,23.5,20.7,30.21,East,86,2.0,2.0,89,0.00,,,0.01,Wunderground v.1.15,2013-02-08 16:50:00,
2013-02-08 12:00:00,23.7,20.9,30.20,NNE,17,1.0,2.0,89,0.00,,,0.01,Wunderground v.1.15,2013-02-08 17:00:00,
2013-02-08 12:10:00,23.8,21.0,30.19,NNW,333,1.0,3.0,89,0.00,,,0.01,Wunderground v.1.15,2013-02-08 17:10:00,
2013-02-08 12:20:00,23.8,21.3,30.18,NE,46,1.0,1.0,90,0.00,,,0.01,Wunderground v.1.15,2013-02-08 17:20:00,
2013-02-08 12:30:00,23.8,21.3,30.17,NNE,25,1.0,2.0,90,0.00,,,0.02,Wunderground v.1.15,2013-02-08 17:30:00,
2013-02-08 12:40:00,23.6,21.1,30.17,NE,39,1.0,1.0,90,0.00,,,0.02,Wunderground v.1.15,2013-02-08 17:40:00,
2013-02-08 12:50:00,23.0,20.5,30.16,SE,134,2.0,2.0,90,0.00,,,0.02,Wunderground v.1.15,2013-02-08 17:50:00,
2013-02-08 13:00:00,23.0,20.8,30.15,NNW,346,2.0,2.0,91,0.00,,,0.03,Wunderground v.1.15,2013-02-08 18:00:00,
2013-02-08 13:10:00,22.7,20.2,30.15,NNW,346,2.0,2.0,90,0.00,,,0.03,Wunderground v.1.15,2013-02-08 18:10:00,
2013-02-08 13:20:00,22.5,20.3,30.14,ENE,71,2.0,2.0,91,0.00,,,0.04,Wunderground v.1.15,2013-02-08 18:20:00,
2013-02-08 13:30:00,22.6,20.1,30.14,NE,40,2.0,2.0,90,0.00,,,0.04,Wunderground v.1.15,2013-02-08 18:30:00,
2013-02-08 13:40:00,22.4,19.9,30.13,East,80,1.0,5.0,90,0.00,,,0.04,Wunderground v.1.15,2013-02-08 18:40:00,
2013-02-08 13:50:00,21.8,19.3,30.12,NNE,26,2.0,3.0,90,0.00,,,0.04,Wunderground v.1.15,2013-02-08 18:50:00,
2013-02-08 14:00:00,21.7,19.5,30.11,NW,305,2.0,3.0,91,0.00,,,0.05,Wunderground v.1.15,2013-02-08 19:00:00,
2013-02-08 14:10:00,21.6,19.4,30.11,SE,126,2.0,4.0,91,0.00,,,0.05,Wunderground v.1.15,2013-02-08 19:10:00,
2013-02-08 14:20:00,21.8,19.6,30.09,NE,41,1.0,1.0,91,0.00,,,0.06,Wunderground v.1.15,2013-02-08 19:20:00,
2013-02-08 14:30:00,22.0,19.8,30.09,North,5,1.0,1.0,91,0.00,,,0.06,Wunderground v.1.15,2013-02-08 19:30:00,
2013-02-08 14:40:00,21.8,19.6,30.08,NE,53,1.0,2.0,91,0.00,,,0.06,Wunderground v.1.15,2013-02-08 19:40:00,
2013-02-08 14:50:00,21.3,18.8,30.07,ENE,59,2.0,3.0,90,0.00,,,0.06,Wunderground v.1.15,2013-02-08 19:50:00,
2013-02-08 15:00:00,21.1,18.9,30.08,ENE,68,1.0,2.0,91,0.00,,,0.07,Wunderground v.1.15,2013-02-08 20:00:00,
2013-02-08 15:10:00,21.1,18.9,30.07,NNE,15,1.0,1.0,91,0.04,,,0.07,Wunderground v.1.15,2013-02-08 20:10:00,
2013-02-08 15:20:00,21.1,18.9,30.06,NNE,32,2.0,3.0,91,0.04,,,0.08,Wunderground v.1.15,2013-02-08 20:20:00,
2013-02-08 15:30:00,21.1,18.9,30.04,NNE,24,1.0,2.0,91,0.04,,,0.09,Wunderground v.1.15,2013-02-08 20:30:00,
2013-02-08 15:41:00,21.2,19.2,30.03,NE,49,2.0,2.0,92,0.05,,,0.10,Wunderground v.1.15,2013-02-08 20:41:00,
2013-02-08 15:50:00,21.4,19.4,30.02,NNE,24,1.0,2.0,92,0.04,,,0.10,Wunderground v.1.15,2013-02-08 20:50:00,
2013-02-08 16:00:00,21.5,19.5,30.01,NNE,32,2.0,2.0,92,0.04,,,0.11,Wunderground v.1.15,2013-02-08 21:00:00,
2013-02-08 16:10:00,21.5,19.5,30.00,ENE,62,2.0,2.0,92,0.04,,,0.12,Wunderground v.1.15,2013-02-08 21:10:00,
2013-02-08 16:20:00,21.7,19.7,29.99,ENE,67,2.0,2.0,92,0.04,,,0.12,Wunderground v.1.15,2013-02-08 21:20:00,
2013-02-08 16:30:00,21.9,19.9,29.99,NE,49,1.0,2.0,92,0.00,,,0.13,Wunderground v.1.15,2013-02-08 21:30:00,
2013-02-08 16:40:00,22.2,20.5,29.97,East,79,1.0,1.0,93,0.04,,,0.14,Wunderground v.1.15,2013-02-08 21:40:00,
2013-02-08 16:50:00,22.4,20.7,29.96,North,355,1.0,1.0,93,0.04,,,0.14,Wunderground v.1.15,2013-02-08 21:50:00,
2013-02-08 17:00:00,22.4,20.7,29.95,ENE,57,2.0,2.0,93,0.00,,,0.15,Wunderground v.1.15,2013-02-08 22:00:00,
2013-02-08 17:10:00,22.7,21.0,29.95,NNW,338,1.0,4.0,93,0.05,,,0.16,Wunderground v.1.15,2013-02-08 22:10:00,
2013-02-08 17:20:00,22.7,21.0,29.94,ENE,76,1.0,2.0,93,0.05,,,0.16,Wunderground v.1.15,2013-02-08 22:20:00,
2013-02-08 17:30:00,22.9,21.2,29.94,NE,42,2.0,2.0,93,0.04,,,0.17,Wunderground v.1.15,2013-02-08 22:30:00,
2013-02-08 17:40:00,23.0,21.0,29.94,ESE,109,2.0,2.0,92,0.06,,,0.18,Wunderground v.1.15,2013-02-08 22:40:00,
2013-02-08 17:50:00,22.8,20.8,29.93,NE,42,2.0,2.0,92,0.05,,,0.19,Wunderground v.1.15,2013-02-08 22:50:00,
2013-02-08 18:00:00,22.6,20.6,29.93,North,5,2.0,2.0,92,0.07,,,0.20,Wunderground v.1.15,2013-02-08 23:00:00,
2013-02-08 18:10:00,22.4,20.4,29.92,ENE,73,1.0,2.0,92,0.06,,,0.21,Wunderground v.1.15,2013-02-08 23:10:00,
2013-02-08 18:30:00,21.9,19.9,29.91,North,355,2.0,2.0,92,0.07,,,0.24,Wunderground v.1.15,2013-02-08 23:30:00,
2013-02-08 18:40:00,21.5,19.5,29.90,NE,38,2.0,2.0,92,0.05,,,0.24,Wunderground v.1.15,2013-02-08 23:40:00,
2013-02-08 18:50:00,21.1,19.1,29.90,NNE,22,2.0,4.0,92,0.04,,,0.25,Wunderground v.1.15,2013-02-08 23:50:00,
2013-02-08 19:00:00,20.9,18.9,29.89,NE,44,3.0,3.0,92,0.07,,,0.27,Wunderground v.1.15,2013-02-09 00:00:00,
2013-02-08 19:10:00,20.8,18.8,29.87,East,80,2.0,2.0,92,0.08,,,0.28,Wunderground v.1.15,2013-02-09 00:10:00,
2013-02-08 19:20:00,20.8,18.8,29.86,ENE,63,3.0,3.0,92,0.07,,,0.29,Wunderground v.1.15,2013-02-09 00:20:00,
2013-02-08 19:30:00,20.8,18.8,29.86,East,94,4.0,4.0,92,0.06,,,0.30,Wunderground v.1.15,2013-02-09 00:30:00,
2013-02-08 19:40:00,20.7,18.7,29.85,SE,130,4.0,4.0,92,0.10,,,0.32,Wunderground v.1.15,2013-02-09 00:40:00,
2013-02-08 19:50:00,20.6,18.6,29.84,NE,54,3.0,4.0,92,0.05,,,0.33,Wunderground v.1.15,2013-02-09 00:50:00,
2013-02-08 20:00:00,20.5,18.5,29.84,North,11,4.0,4.0,92,0.06,,,0.34,Wunderground v.1.15,2013-02-09 01:00:00,
2013-02-08 20:10:00,20.4,18.4,29.83,ESE,108,3.0,7.0,92,0.10,,,0.35,Wunderground v.1.15,2013-02-09 01:10:00,
2013-02-08 20:20:00,20.2,18.2,29.82,NW,326,4.0,4.0,92,0.12,,,0.37,Wunderground v.1.15,2013-02-09 01:20:00,
2013-02-08 20:30:00,20.0,18.1,29.81,NNE,24,4.0,4.0,92,0.08,,,0.39,Wunderground v.1.15,2013-02-09 01:30:00,
2013-02-08 20:40:00,19.8,17.9,29.80,NNE,27,4.0,4.0,92,0.10,,,0.41,Wunderground v.1.15,2013-02-09 01:40:00,
2013-02-08 20:50:00,19.7,17.8,29.79,NNE,17,3.0,5.0,92,0.10,,,0.42,Wunderground v.1.15,2013-02-09 01:50:00,
2013-02-08 21:00:00,19.9,18.0,29.79,NNW,329,4.0,4.0,92,0.15,,,0.44,Wunderground v.1.15,2013-02-09 02:00:00,
2013-02-08 21:10:00,20.0,18.1,29.79,NNE,33,3.0,4.0,92,0.13,,,0.46,Wunderground v.1.15,2013-02-09 02:10:00,
2013-02-08 21:20:00,19.9,18.0,29.76,NNE,32,3.0,4.0,92,0.08,,,0.47,Wunderground v.1.15,2013-02-09 02:20:00,
2013-02-08 21:30:00,19.6,17.7,29.76,NNE,31,4.0,4.0,92,0.08,,,0.49,Wunderground v.1.15,2013-02-09 02:30:00,
2013-02-08 21:40:00,19.1,17.2,29.75,NNE,27,4.0,4.0,92,0.09,,,0.50,Wunderground v.1.15,2013-02-09 02:40:00,
2013-02-08 21:50:00,19.1,17.2,29.76,NW,317,3.0,3.0,92,0.09,,,0.52,Wunderground v.1.15,2013-02-09 02:50:00,
2013-02-08 22:00:00,18.8,16.9,29.75,West,265,4.0,4.0,92,0.15,,,0.54,Wunderground v.1.15,2013-02-09 03:00:00,
2013-02-08 22:10:00,18.4,16.5,29.71,ENE,65,4.0,4.0,92,0.10,,,0.56,Wunderground v.1.15,2013-02-09 03:10:00,
2013-02-08 22:20:00,18.0,16.1,29.71,NNW,328,4.0,4.0,92,0.09,,,0.57,Wunderground v.1.15,2013-02-09 03:20:00,
2013-02-08 22:30:00,17.9,16.0,29.71,NE,46,4.0,5.0,92,0.07,,,0.58,Wunderground v.1.15,2013-02-09 03:30:00,
2013-02-08 22:40:00,17.7,15.8,29.71,NE,43,4.0,4.0,92,0.08,,,0.60,Wunderground v.1.15,2013-02-09 03:40:00,
2013-02-08 22:50:00,17.5,15.6,29.70,North,351,4.0,4.0,92,0.05,,,0.60,Wunderground v.1.15,2013-02-09 03:50:00,
2013-02-08 23:00:00,17.4,15.5,29.68,NE,49,4.0,4.0,92,0.04,,,0.61,Wunderground v.1.15,2013-02-09 04:00:00,
2013-02-08 23:10:00,17.5,15.6,29.67,NNE,26,4.0,4.0,92,0.00,,,0.62,Wunderground v.1.15,2013-02-09 04:10:00,
2013-02-08 23:20:00,17.6,15.7,29.66,North,351,5.0,11.0,92,0.00,,,0.62,Wunderground v.1.15,2013-02-09 04:20:00,
2013-02-08 23:30:00,17.6,15.7,29.66,NE,44,5.0,5.0,92,0.00,,,0.62,Wunderground v.1.15,2013-02-09 04:30:00,
2013-02-08 23:40:00,17.5,15.6,29.66,ESE,118,6.0,6.0,92,0.00,,,0.63,Wunderground v.1.15,2013-02-09 04:40:00,
2013-02-08 23:50:00,17.4,15.5,29.65,South,171,5.0,5.0,92,0.05,,,0.64,Wunderground v.1.15,2013-02-09 04:50:00,